Amateur Radio Satellites - All Passes

Search period start: 21 May 2013 07:37
Search period end: 22 May 2013 07:37
Location: Walnut Point State Park, 39.6958°N, 88.0345°W

Satellite Date Start Highest point End Downlink Frequencies (MHz)
Time Altitude Azimuth
STRAND 1 21 May 07:54:16 07:56:54 14° 269° (W) 07:59:32 ?
AO-7 21 May 08:04:01 08:09:55 22° 307° (NW) 08:15:49 29.400 - 29.500 MHz
Sapphire 21 May 08:04:46 08:10:10 88° 117° (ESE) 08:15:37 437.095 MHz 1200 baud AX-25 AFSK
KITSAT 1 21 May 08:15:40 08:23:43 60° 55° (NE) 08:31:42 435.175 FM
JAS-1B 21 May 08:25:27 08:31:23 52° 99° (E) 08:36:52 435.800 - 435.900 CW/SSB
SO-50 21 May 08:30:02 08:34:07 28° 113° (ESE) 08:38:10 436.795 FM
Hamsat 21 May 08:34:42 08:38:44 38° 288° (WNW) 08:42:47 145.90 MHz
SO-67 21 May 08:44:36 08:48:12 78° 283° (WNW) 08:51:46 435.3500 MHz FM
ISS 21 May 08:48:06 08:50:47 22° 24° (NNE) 08:53:27 145.800 FM
PCSat 21 May 09:16:33 09:21:00 25° 311° (NW) 09:25:29 145.825 MHz
Oscar 10/S400 21 May 09:28:38 11:37:40 24° 274° (W) 16:47:46 145.825 - 145.975 CW/USB, Beacon 145.810 USB
JAS-2 21 May 09:30:52 09:35:52 21° 89° (E) 09:40:27 435.800 - 435.900 CW/SSB, 435.910 FM
Sapphire 21 May 09:51:06 09:54:21 16° 317° (NW) 09:57:37 437.095 MHz 1200 baud AX-25 AFSK
HO-68 21 May 09:59:17 10:06:11 48° 100° (E) 10:13:03 435.675 MHz FM
SO-50 21 May 10:10:15 10:14:38 35° 309° (NW) 10:18:59 436.795 FM
KITSAT 1 21 May 10:11:49 10:18:37 30° 254° (WSW) 10:25:23 435.175 FM
JAS-1B 21 May 10:17:10 10:21:33 21° 300° (WNW) 10:25:41 435.800 - 435.900 CW/SSB
ISS 21 May 10:24:24 10:27:44 61° 221° (SW) 10:31:04 145.800 FM
Oscar 11 21 May 10:28:07 10:32:23 51° 100° (E) 10:36:38 145.825 FM, Beacon 2401.500 USB
MaSat-1 21 May 11:06:29 11:08:39 16° 50° (NE) 11:10:34 437.345 MHz
OPAL 21 May 11:13:06 11:18:04 62° 103° (ESE) 11:22:58 ?
JAS-2 21 May 11:14:38 11:21:33 61° 289° (WNW) 11:27:36 435.800 - 435.900 CW/SSB, 435.910 FM
UOSAT-12 21 May 11:40:56 11:45:14 46° 117° (ESE) 11:49:36 437.025 FM, 437.400 FM
HO-68 21 May 11:47:26 11:53:36 33° 298° (WNW) 11:59:46 435.675 MHz FM
Oscar 11 21 May 12:05:46 12:08:11 15° 296° (WNW) 12:10:35 145.825 FM, Beacon 2401.500 USB
PANSAT 21 May 12:37:55 12:39:25 12° 168° (SSE) 12:40:56 not established
Oscar 16 21 May 12:43:35 12:47:29 22° 65° (ENE) 12:51:24 437.025 USB, Beacon 2401.1428
MaSat-1 21 May 12:48:24 12:50:39 18° 257° (WSW) 12:52:38 437.345 MHz
AO-27 21 May 12:49:31 12:52:59 18° 63° (ENE) 12:56:27 436.795 MHz FM
OPAL 21 May 12:53:25 12:56:26 16° 300° (WNW) 12:59:26 ?
ITAMSAT 1 21 May 12:56:13 12:59:58 21° 64° (ENE) 13:03:43 435.822 SSB
JAS-2 21 May 13:03:33 13:04:56 11° 310° (NW) 13:06:17 435.800 - 435.900 CW/SSB, 435.910 FM
UOSAT-12 21 May 13:22:10 13:25:39 21° 314° (NW) 13:29:09 437.025 FM, 437.400 FM
Uribyol 2 21 May 13:36:07 13:41:06 50° 71° (ENE) 13:46:06 436.500 FM
Oscar 19 21 May 13:42:13 13:47:21 65° 73° (ENE) 13:52:31 437.125 CW, 437.150 USB
AO-Echo 21 May 13:59:01 14:02:56 25° 68° (ENE) 14:06:48 ?
Saudisat 1A 21 May 14:11:32 14:15:18 25° 47° (NE) 14:18:59 436.775 MHz
PANSAT 21 May 14:16:42 14:19:05 16° 181° (S) 14:21:28 not established
Oscar 16 21 May 14:21:34 14:26:31 46° 261° (W) 14:31:32 437.025 USB, Beacon 2401.1428
TMSAT-1 21 May 14:26:05 14:27:51 12° 59° (ENE) 14:29:37 436.925 FM
AO-27 21 May 14:27:00 14:32:03 55° 259° (W) 14:37:09 436.795 MHz FM
ITAMSAT 1 21 May 14:34:08 14:39:06 48° 260° (W) 14:44:08 435.822 SSB
Gurwin Techsat 1B 21 May 14:44:02 14:48:21 26° 66° (ENE) 14:52:41 435.225 FM
RS-15 21 May 14:58:18 15:06:22 21° 100° (E) 15:14:12 29.354 - 29.394 USB, Beacon 29.352 USB
Sapphire 21 May 15:13:11 15:14:27 11° 38° (NE) 15:15:42 437.095 MHz 1200 baud AX-25 AFSK
Uribyol 2 21 May 15:17:16 15:20:51 19° 267° (W) 15:24:28 436.500 FM
AO-7 21 May 15:17:41 15:23:54 24° 55° (NE) 15:30:08 29.400 - 29.500 MHz
Oscar 19 21 May 15:24:23 15:27:09 14° 269° (W) 15:29:55 437.125 CW, 437.150 USB
Uosat F 21 May 15:27:49 15:32:49 83° 75° (ENE) 15:37:51 435.120 FM
AO-Echo 21 May 15:37:10 15:41:35 34° 263° (W) 15:45:56 ?
Saudisat 1A 21 May 15:50:54 15:55:06 38° 245° (WSW) 15:59:13 436.775 MHz
PANSAT 21 May 15:57:38 15:58:43 11° 194° (SSW) 15:59:48 not established
TMSAT-1 21 May 16:01:41 16:06:59 89° 76° (ENE) 16:12:19 436.925 FM
PCSat 21 May 16:21:02 16:25:58 34° 53° (NE) 16:30:51 145.825 MHz
Gurwin Techsat 1B 21 May 16:23:12 16:28:07 39° 262° (W) 16:33:04 435.225 FM
Sapphire 21 May 16:53:42 16:59:04 58° 58° (ENE) 17:04:24 437.095 MHz 1200 baud AX-25 AFSK
SO-50 21 May 17:02:53 17:06:28 22° 46° (NE) 17:09:59 436.795 FM
RS-15 21 May 17:05:04 17:17:12 86° 119° (ESE) 17:28:49 29.354 - 29.394 USB, Beacon 29.352 USB
AO-7 21 May 17:07:32 17:15:49 79° 254° (WSW) 17:24:11 29.400 - 29.500 MHz
Hamsat 21 May 17:54:35 17:56:16 12° 64° (ENE) 17:57:56 145.90 MHz
PCSat 21 May 18:04:30 18:09:21 34° 250° (WSW) 18:14:10 145.825 MHz
STRAND 1 21 May 18:24:30 18:28:33 23° 94° (E) 18:32:35 ?
Sapphire 21 May 18:38:21 18:42:00 19° 255° (WSW) 18:45:38 437.095 MHz 1200 baud AX-25 AFSK
SO-50 21 May 18:42:58 18:47:17 44° 244° (WSW) 18:51:31 436.795 FM
AO-7 21 May 19:06:02 19:09:48 14° 271° (W) 19:13:37 29.400 - 29.500 MHz
JAS-1B 21 May 19:06:32 19:15:24 51° 69° (ENE) 19:23:03 435.800 - 435.900 CW/SSB
SO-67 21 May 19:19:52 19:23:03 31° 72° (ENE) 19:26:15 435.3500 MHz FM
RS-15 21 May 19:20:48 19:31:07 33° 324° (NW) 19:41:06 29.354 - 29.394 USB, Beacon 29.352 USB
Hamsat 21 May 19:27:41 19:31:49 58° 260° (W) 19:36:01 145.90 MHz
JAS-2 21 May 19:44:12 19:47:04 12° 52° (NE) 19:49:57 435.800 - 435.900 CW/SSB, 435.910 FM
STRAND 1 21 May 20:03:05 20:07:52 40° 290° (WNW) 20:12:39 ?
UOSAT-12 21 May 20:11:25 20:15:37 34° 50° (NE) 20:19:48 437.025 FM, 437.400 FM
HO-68 21 May 20:27:21 20:33:36 34° 63° (ENE) 20:39:51 435.675 MHz FM
OPAL 21 May 20:51:43 20:54:08 13° 58° (ENE) 20:56:33 ?
SO-67 21 May 20:54:40 20:56:36 14° 268° (W) 20:58:33 435.3500 MHz FM
JAS-1B 21 May 20:57:26 21:05:56 38° 263° (W) 21:13:27 435.800 - 435.900 CW/SSB
Oscar 11 21 May 21:22:49 21:26:46 36° 71° (ENE) 21:30:45 145.825 FM, Beacon 2401.500 USB
JAS-2 21 May 21:23:00 21:30:29 59° 70° (ENE) 21:38:10 435.800 - 435.900 CW/SSB, 435.910 FM
RS-15 21 May 21:41:17 21:48:39 18° 359° (N) 21:55:51 29.354 - 29.394 USB, Beacon 29.352 USB
UOSAT-12 21 May 21:51:47 21:55:40 27° 247° (WSW) 21:59:32 437.025 FM, 437.400 FM
HO-68 21 May 22:14:18 22:21:04 46° 260° (W) 22:27:53 435.675 MHz FM
OPAL 21 May 22:27:08 22:32:21 82° 255° (WSW) 22:37:33 ?
KITSAT 1 21 May 22:43:02 22:50:33 45° 110° (ESE) 22:58:08 435.175 FM
Oscar 11 21 May 23:00:07 23:03:07 18° 267° (W) 23:06:08 145.825 FM, Beacon 2401.500 USB
JAS-2 21 May 23:09:20 23:15:47 29° 268° (W) 23:22:26 435.800 - 435.900 CW/SSB, 435.910 FM
RS-15 21 May 23:56:34 00:06:14 31° 34° (NE) 00:15:36 29.354 - 29.394 USB, Beacon 29.352 USB
KITSAT 1 22 May 00:38:24 00:45:58 43° 310° (NW) 00:53:37 435.175 FM
MaSat-1 22 May 01:34:38 01:41:27 46° 110° (ESE) 01:47:14 437.345 MHz
Uribyol 2 22 May 01:50:42 01:54:24 19° 93° (E) 01:58:05 436.500 FM
Oscar 19 22 May 01:55:29 01:59:41 25° 94° (E) 02:03:49 437.125 CW, 437.150 USB
RS-15 22 May 02:08:58 02:20:07 87° 241° (WSW) 02:31:00 29.354 - 29.394 USB, Beacon 29.352 USB
Oscar 16 22 May 02:33:58 02:39:09 69° 102° (ESE) 02:44:16 437.025 USB, Beacon 2401.1428
KITSAT 1 22 May 02:40:17 02:43:56 13° 336° (NNW) 02:47:35 435.175 FM
AO-27 22 May 02:40:49 02:45:58 58° 101° (E) 02:51:06 436.795 MHz FM
ITAMSAT 1 22 May 02:47:40 02:52:53 65° 102° (ESE) 02:58:04 435.822 SSB
ISS 22 May 03:05:57 03:09:14 69° 140° (SE) 03:12:33 145.800 FM
MaSat-1 22 May 03:17:29 03:23:42 34° 301° (WNW) 03:28:57 437.345 MHz
Uribyol 2 22 May 03:29:06 03:34:09 49° 289° (WNW) 03:39:10 436.500 FM
Oscar 19 22 May 03:34:22 03:39:07 38° 291° (WNW) 03:43:50 437.125 CW, 437.150 USB
Uosat F 22 May 03:37:01 03:41:17 27° 96° (E) 03:45:31 435.120 FM
AO-Echo 22 May 03:44:28 03:49:14 80° 103° (ESE) 03:54:05 ?
Oscar 16 22 May 04:15:04 04:17:55 15° 299° (WNW) 04:20:45 437.025 USB, Beacon 2401.1428
TMSAT-1 22 May 04:18:43 04:23:40 38° 98° (E) 04:28:35 436.925 FM
AO-27 22 May 04:21:35 04:25:01 18° 297° (WNW) 04:28:28 436.795 MHz FM
RS-15 22 May 04:23:48 04:30:42 19° 261° (W) 04:37:35 29.354 - 29.394 USB, Beacon 29.352 USB
ITAMSAT 1 22 May 04:28:44 04:31:49 16° 298° (WNW) 04:34:55 435.822 SSB
Gurwin Techsat 1B 22 May 04:39:48 04:45:09 89° 285° (WNW) 04:50:28 435.225 FM
ISS 22 May 04:43:42 04:46:15 20° 338° (NNW) 04:48:49 145.800 FM
AO-7 22 May 05:10:21 05:18:01 38° 98° (E) 05:25:38 29.400 - 29.500 MHz
Uosat F 22 May 05:15:36 05:20:04 33° 292° (WNW) 05:24:32 435.120 FM
AO-Echo 22 May 05:26:04 05:27:23 11° 299° (WNW) 05:28:43 ?
STRAND 1 22 May 05:39:47 05:44:12 31° 68° (ENE) 05:48:40 ?
Saudisat 1A 22 May 05:56:47 06:01:19 69° 119° (ESE) 06:05:54 436.775 MHz
TMSAT-1 22 May 05:59:03 06:03:24 26° 294° (WNW) 06:07:43 436.925 FM
Gurwin Techsat 1B 22 May 06:22:30 06:24:19 12° 301° (WNW) 06:26:07 435.225 FM
ISS 22 May 06:23:04 06:23:59 11° 358° (N) 06:24:55 145.800 FM
KITSAT 1 22 May 06:37:07 06:43:16 23° 38° (NE) 06:49:24 435.175 FM
PCSat 22 May 07:02:16 07:07:06 35° 110° (ESE) 07:11:59 145.825 MHz
AO-7 22 May 07:03:00 07:10:53 48° 296° (WNW) 07:18:45 29.400 - 29.500 MHz
Hamsat 22 May 07:15:20 07:19:03 27° 95° (E) 07:22:45 145.90 MHz
STRAND 1 22 May 07:18:57 07:23:22 30° 264° (W) 07:27:48 ?

Developed and maintained by Chris Peat, Heavens-Above GmbH. Please read the updated FAQ before sending e-mail. Imprint. DLR
